Weather Roundup
Issued by NWS Corpus Christi, TX

Home | Current Version | Previous Version | Text Only | Print | Product List | Glossary On
Versions: 1 2 3 4 5 6 7 8 9 10 11 12 13 14 15 16 17 18 19 20 21 22 23 24 25 26 27 28 29 30 31 32 33 34 35 36 37 38 39 40 41 42 43 44 45 46 47 48 49 50
000
ASUS44 KCRP 201510
HRRCRP

SOUTH TEXAS REGIONAL WEATHER ROUNDUP
NATIONAL WEATHER SERVICE CORPUS CHRISTI TX
1000 AM CDT SUN AUG 20 2017


TXZ229>244-201600-
...CORPUS CHRISTI AREA OBSERVATIONS...

CITY           SKY/WX    TMP DP  RH WIND       PRES   REMARKS
CORPUS CHRISTI MOSUNNY   88  75  65 S10       29.99R HX  97
NAS CORPUS CHR NOT AVBL
ROCKPORT         N/A     79  75  87 S10       29.99R
KINGSVILLE ARP FAIR      88  77  69 SE7       29.99R HX 101
KINGSVILLE NAS MOSUNNY   89  78  70 S12       29.98R HX 103
ALICE          SUNNY     88  73  61 S9        29.98R HX  95
FALFURRIAS     SUNNY     87  74  63 CALM      29.98R HX  95
$$

...VICTORIA AREA OBSERVATIONS...

CITY           SKY/WX    TMP DP  RH WIND       PRES   REMARKS
PORT LAVACA    MOSUNNY   84  75  73 CALM      30.02R HX  92
VICTORIA       PTSUNNY   85  76  74 CALM      30.02R HX  94
BEEVILLE       FAIR      86  76  72 S6        30.01R HX  97
PLEASANTON     NOT AVBL
SAN ANTONIO    MOSUNNY   84  71  65 SW8       30.03R
$$

...LAREDO AREA OBSERVATIONS...

CITY           SKY/WX    TMP DP  RH WIND       PRES   REMARKS
LAREDO         NOT AVBL
COTULLA        SUNNY     86  71  60 S12G20    29.98R HX  91
DEL RIO        SUNNY     83  71  67 SE9       29.98R
MCALLEN        SUNNY     88  74  63 SE12      29.97R HX  96
HEBBRONVILLE   SUNNY     83  72  69 S7        30.00S
$$

...OTHER TEXAS OBSERVATIONS...

CITY           SKY/WX    TMP DP  RH WIND       PRES   REMARKS
BROWNSVILLE    MOSUNNY   88  76  67 S10       29.97R HX  99
HOUSTON        MOSUNNY   89  77  67 S3        30.03R HX 101
COL. STATION   PTSUNNY   84  76  76 W6        30.03R HX  93
AUSTIN         MOSUNNY   86  74  67 SW8       30.02R HX  94
WACO           SUNNY     85  70  60 SW7       30.01S
FORT WORTH     MOSUNNY   89  69  51 S9        30.00R HX  93
WICHITA FALLS  LGT RAIN  76  69  79 SW10      30.00S
LUBBOCK        MOSUNNY   79  65  62 S12       30.08R
EL PASO        CLOUDY    67  67 100 N6        30.12R
$$

...MARINE OBSERVATIONS...

STATION/POSITION TIME  SKY/WX   TEMP    WIND        PRES    VSBY  WAVE   SWELL
                                AIR SEA DIR/SP/G                  HT/PER HT/PER
                 (UTC)          (F)     (DEG/KT/KT) (MB)    (MI)  (FT/S) (FT/S)
PORT ARANSAS     1400            82 86  180/  5/  6 1015.1R
BUOY 90 E PORT A 1450            86 86  120/  4/  4 1016.2R         2/ 5   2/ 5
BUOY 45 SE BAFFI 1450            85     150/  6/  8 1014.5R         2/ 5   2/ 5
BUOY 200 E PT IS 1450            86 88   80/  6/  6 1015.9R         1/ 4
BUOY 15 E GALVES 1350            89 87   CALM  /  2 1016.3          1/ 3
$$



USA.gov is the U.S. government's official web portal to all federal, state and local government web resources and services.